This is the latest recevied weather packets stored in our database for station/object YO3FVR-WX. If no packets are shown the sender has not sent any weather packets the latest 10 day(s).
| Time | Temp. | Humidity | Pressure | Rain* | Wind** | Luminosity | Snow |
|---|---|---|---|---|---|---|---|
| 1777455257 | 14.44° C | 46% | 1014.2 hPa | 0 mm | - | - | - |
| 1777454027 | 14.44° C | 45% | 1014.4 hPa | 0 mm | - | - | - |
| 1777452797 | 14.44° C | 45% | 1014.5 hPa | 0 mm | - | - | - |
| 1777451567 | 14.44° C | 47% | 1014.3 hPa | 0 mm | - | - | - |
| 1777450337 | 13.33° C | 49% | 1014.3 hPa | 0 mm | - | - | - |
| 1777449137 | 13.33° C | 50% | 1014.4 hPa | 0 mm | - | - | - |
| 1777447937 | 13.33° C | 51% | 1014.3 hPa | 0 mm | - | - | - |
| 1777446707 | 13.33° C | 51% | 1014.1 hPa | 0 mm | - | - | - |
| 1777445477 | 12.22° C | 54% | 1014 hPa | 0 mm | - | - | - |
| 1777444277 | 12.22° C | 56% | 1014.1 hPa | 0 mm | - | - | - |
| 1777443048 | 11.67° C | 56% | 1014 hPa | 0 mm | - | - | - |
| 1777441847 | 11.11° C | 57% | 1013.7 hPa | 0 mm | - | - | - |
| 1777440647 | 10.56° C | 59% | 1013.7 hPa | 0 mm | - | - | - |
| 1777439418 | 10° C | 58% | 1013.7 hPa | 0 mm | - | - | - |
| 1777438217 | 10° C | 58% | 1013.7 hPa | 0 mm | - | - | - |
| 1777436988 | 10° C | 57% | 1013.7 hPa | 0 mm | - | - | - |
| 1777435787 | 10° C | 57% | 1013.5 hPa | 0 mm | - | - | - |
| 1777434587 | 10° C | 57% | 1013.5 hPa | 0 mm | - | - | - |
| 1777433387 | 10° C | 58% | 1013.5 hPa | 0 mm | - | - | - |
| 1777432157 | 10° C | 58% | 1013.4 hPa | 0 mm | - | - | - |
| 1777430928 | 10° C | 59% | 1013.4 hPa | 0 mm | - | - | - |
| 1777429727 | 10° C | 58% | 1013.4 hPa | 0 mm | - | - | - |
| 1777428527 | 10° C | 58% | 1013.3 hPa | 0 mm | - | - | - |
| 1777427297 | 10.56° C | 58% | 1013.3 hPa | 0 mm | - | - | - |
| 1777426067 | 10.56° C | 59% | 1013.2 hPa | 0 mm | - | - | - |
* Rain latest hour (hover to see other rain measurements)
** Current wind speed in m/s (hover to see current wind gust speed)